This is the latest recevied weather packets stored in our database for station/object MARKET. If no packets are shown the sender has not sent any weather packets the latest 1 day(s).
| Time | Temp. | Humidity | Pressure | Rain* | Wind** | Luminosity | Snow |
|---|---|---|---|---|---|---|---|
| 1778095647 | 5.56° C | 74% | 1014 hPa | - | - | - | - |
| 1778094447 | 5.56° C | 74% | 1014 hPa | - | - | - | - |
| 1778086046 | 6.67° C | 73% | 1013.9 hPa | - | - | - | - |
| 1778083646 | 6.67° C | 65% | 1014 hPa | - | - | - | - |
| 1778081247 | 7.22° C | 64% | 1014 hPa | - | - | - | - |
| 1778077646 | 7.22° C | 65% | 1014.4 hPa | - | - | - | - |
| 1778075246 | 7.22° C | 68% | 1014.5 hPa | - | - | - | - |
| 1778070445 | 7.22° C | 69% | 1014.6 hPa | - | - | - | - |
| 1778065645 | 6.11° C | 74% | 1014.8 hPa | - | - | - | - |
| 1778063247 | 5° C | 77% | 1014.9 hPa | - | - | - | - |
| 1778062048 | 5° C | 70% | 1014.8 hPa | - | - | - | - |
| 1778060848 | 5° C | 71% | 1014.9 hPa | - | - | - | - |
| 1778059647 | 5° C | 70% | 1014.7 hPa | - | - | - | - |
| 1778058447 | 5° C | 73% | 1014.7 hPa | - | - | - | - |
| 1778057248 | 5° C | 74% | 1014.7 hPa | - | - | - | - |
| 1778056048 | 5° C | 74% | 1014.7 hPa | - | - | - | - |
| 1778054847 | 4.44° C | 74% | 1014.6 hPa | - | - | - | - |
| 1778053647 | 4.44° C | 76% | 1014.4 hPa | - | - | - | - |
| 1778052448 | 4.44° C | 79% | 1014.2 hPa | - | - | - | - |
| 1778051247 | 4.44° C | 78% | 1014 hPa | - | - | - | - |
| 1778050047 | 4.44° C | 79% | 1013.8 hPa | - | - | - | - |
| 1778045247 | 4.44° C | 75% | 1013.1 hPa | - | - | - | - |
| 1778044046 | 4.44° C | 79% | 1013 hPa | - | - | - | - |
| 1778042847 | 4.44° C | 79% | 1012.8 hPa | - | - | - | - |
| 1778041646 | 4.44° C | 77% | 1012.6 hPa | - | - | - | - |
* Rain since midnight (hover to see other rain measurements)
** Current wind speed in m/s (hover to see current wind gust speed)